TimeMST,TemperatureF,Dew PointF,Humidity,Sea Level PressureIn,VisibilityMPH,Wind Direction,Wind SpeedMPH,Gust SpeedMPH,PrecipitationIn,Events,Conditions,WindDirDegrees,DateUTC
12:52 AM,36.0,34.0,93,30.13,-9999.0,Calm,Calm,-,N/A,,Unknown,0,2013-11-18 07:52:00
1:52 AM,36.0,34.0,93,30.12,-9999.0,NNW,3.5,-,N/A,,Unknown,340,2013-11-18 08:52:00
2:52 AM,35.1,34.0,96,30.13,-9999.0,Calm,Calm,-,N/A,,Unknown,0,2013-11-18 09:52:00
3:52 AM,35.1,34.0,96,30.12,-9999.0,Calm,Calm,-,N/A,,Unknown,0,2013-11-18 10:52:00
4:52 AM,35.1,33.1,92,30.12,-9999.0,Calm,Calm,-,N/A,,Unknown,0,2013-11-18 11:52:00
5:52 AM,35.1,33.1,92,30.13,-9999.0,Calm,Calm,-,N/A,,Unknown,0,2013-11-18 12:52:00
6:52 AM,35.1,33.1,92,30.13,-9999.0,NNW,3.5,-,N/A,,Unknown,340,2013-11-18 13:52:00
7:52 AM,35.1,33.1,92,30.14,-9999.0,Calm,Calm,-,N/A,,Unknown,0,2013-11-18 14:52:00
8:52 AM,36.0,34.0,93,30.14,-9999.0,Calm,Calm,-,N/A,,Unknown,0,2013-11-18 15:52:00
9:52 AM,37.9,35.1,89,30.13,-9999.0,North,3.5,-,N/A,,Unknown,350,2013-11-18 16:52:00
10:52 AM,39.9,34.0,79,30.12,-9999.0,Calm,Calm,-,N/A,,Unknown,0,2013-11-18 17:52:00
11:52 AM,39.9,33.1,77,30.11,-9999.0,Calm,Calm,-,N/A,,Unknown,0,2013-11-18 18:52:00
12:52 PM,41.0,34.0,76,30.07,-9999.0,Calm,Calm,-,N/A,,Unknown,0,2013-11-18 19:52:00
1:52 PM,42.1,34.0,73,30.06,-9999.0,Calm,Calm,-,N/A,,Unknown,0,2013-11-18 20:52:00
2:52 PM,39.9,36.0,86,30.03,-9999.0,Calm,Calm,-,N/A,,Unknown,0,2013-11-18 21:52:00
3:52 PM,39.9,37.0,89,30.01,-9999.0,Calm,Calm,-,N/A,,Unknown,0,2013-11-18 22:52:00
4:52 PM,39.0,36.0,89,30.00,-9999.0,North,3.5,-,N/A,,Unknown,350,2013-11-18 23:52:00
5:52 PM,37.0,35.1,93,29.99,-9999.0,North,3.5,-,N/A,,Unknown,350,2013-11-19 00:52:00
6:52 PM,37.0,35.1,93,29.98,-9999.0,Calm,Calm,-,N/A,,Unknown,0,2013-11-19 01:52:00
7:52 PM,37.0,35.1,93,29.95,-9999.0,North,4.6,-,N/A,,Unknown,350,2013-11-19 02:52:00
8:52 PM,37.0,35.1,93,29.95,-9999.0,NNW,4.6,-,N/A,,Unknown,330,2013-11-19 03:52:00
9:52 PM,36.0,34.0,93,29.94,-9999.0,NW,4.6,-,N/A,,Unknown,320,2013-11-19 04:52:00
10:52 PM,36.0,34.0,93,29.92,-9999.0,NNW,3.5,-,N/A,,Unknown,340,2013-11-19 05:52:00
11:52 PM,36.0,34.0,93,29.91,-9999.0,NNW,3.5,-,N/A,,Unknown,340,2013-11-19 06:52:00